Temp
62 62 62 62 62 62 62 62 62 62 62 62 62 62 61 62 62 63 71 82 80 78 81 77 77 76 77 74 77 75 64 61 65 67 68 71 68 76 77 72 76 77 73 74 75
61 61 61 61 62 61 61 61 62 62 62 61 61 62 61 62 62 66 80 81 78 79 80 78 76 76 70 71 73 68 61 68 74 74 69 73 73 72 71 70 69 70 74 76 74
61 61 61 61 61 61 61 61 61 61 61 61 61 62 62 61 67 75 81 80 78 80 85 84 82 79 70 70 72 68 67 73 76 77 78 73 72 75 69 64 68 67 69 72 72
60 60 60 61 61 61 61 61 61 61 61 61 61 62 62 60 62 81 80 79 78 80 84 81 78 71 68 69 75 67 74 76 76 79 77 73 74 71 71 69 75 74 74 73 71
60 60 60 60 60 60 60 61 60 60 60 61 61 62 58 60 70 81 80 78 78 80 81 79 76 73 69 72 74 70 75 77 79 80 77 77 71 71 70 74 76 76 74 72 72
59 59 59 59 60 60 60 60 60 60 60 61 61 62 59 61 81 82 78 77 78 79 78 80 79 78 73 73 70 76 77 76 77 78 78 72 71 71 71 75 74 74 72 73 73
59 59 59 59 59 59 59 59 59 59 60 61 62 63 61 71 82 79 77 75 79 78 77 80 80 76 74 71 77 73 71 74 74 74 72 75 67 67 73 74 71 72 73 73 74
59 59 59 58 59 59 59 58 59 60 62 62 63 59 62 79 77 80 79 75 77 76 79 80 80 76 72 76 74 70 68 61 71 74 74 70 60 69 73 71 69 72 73 74 74
59 58 58 58 58 58 57 57 59 63 63 64 56 56 64 80 77 80 81 79 77 75 76 91 79 71 71 67 62 65 59 61 67 76 73 68 60 70 73 71 69 71 72 74 73
58 58 58 58 57 57 57 58 59 60 63 67 69 59 70 75 79 80 77 83 76 76 75 74 68 64 62 61 56 60 62 59 64 73 72 65 63 69 72 71 70 71 72 73 74
58 58 57 57 57 57 53 54 59 58 58 64 64 68 75 81 84 78 80 80 75 70 64 67 63 61 65 66 68 69 67 66 69 74 69 64 64 68 70 71 70 70 71 72 74
58 57 57 57 56 56 50 58 57 58 54 66 68 70 77 77 73 77 83 73 69 64 65 63 60 68 73 71 69 68 64 63 68 73 70 65 66 69 70 70 72 72 72 73 75
57 57 57 56 55 53 48 56 59 55 50 63 68 68 71 75 71 74 79 73 67 63 63 59 66 74 73 69 68 63 62 61 64 68 66 65 60 63 70 73 74 75 76 76 75
57 57 56 55 54 46 54 56 57 57 49 59 63 70 72 74 70 81 82 78 67 65 65 63 71 72 69 68 68 57 71 71 69 62 55 65 51 57 65 68 70 74 75 76 77
57 56 56 55 45 46 57 52 55 57 41 66 66 77 69 73 75 75 81 75 68 66 65 64 67 67 67 70 72 66 73 70 67 58 56 57 55 58 64 61 68 73 75 77 78
56 56 55 50 44 48 53 52 56 51 42 62 68 66 64 66 72 75 76 78 74 68 64 66 71 71 72 74 75 74 68 62 56 55 49 57 57 55 57 67 72 75 77 78 79
55 55 53 54 47 51 52 55 48 41 61 59 60 61 61 63 66 71 68 66 61 55 53 60 66 68 73 67 68 66 58 48 48 47 48 52 55 64 66 69 76 76 77 79 80
54 53 50 53 48 50 50 50 38 53 57 63 61 58 60 64 65 66 65 63 61 60 51 53 53 66 71 69 64 62 60 50 44 44 52 55 51 65 72 76 76 80 79 81 80
53 43 42 46 52 48 50 41 47 51 62 60 62 55 55 62 65 65 62 66 67 64 57 50 54 67 71 72 73 59 57 62 50 44 48 52 59 69 69 72 72 73 75 77 80
45 42 41 52 53 48 44 44 48 57 62 61 56 58 53 57 61 59 60 67 66 69 63 59 51 63 71 72 67 66 66 56 50 45 42 50 53 59 66 71 70 70 73 75 78
39 38 51 50 50 45 39 42 52 62 60 57 55 54 55 56 57 56 60 66 73 68 67 57 55 59 64 63 62 61 56 53 54 50 48 46 52 62 69 73 74 72 72 74 76
35 36 52 52 42 37 38 47 55 59 60 60 58 57 57 58 54 55 60 65 73 69 64 62 55 51 60 65 67 65 63 58 53 48 46 48 54 69 69 71 69 71 71 72 73
34 32 46 49 36 35 42 50 55 56 57 57 58 61 57 56 52 57 60 71 70 68 64 63 52 48 55 57 60 60 61 55 52 50 46 49 54 68 66 67 68 70 70 70 71
39 31 38 41 38 37 38 44 49 61 59 59 56 56 53 49 50 52 57 67 69 68 71 66 50 57 57 56 59 58 62 60 59 49 50 52 58 65 69 68 69 69 69 69 69
35 31 39 32 35 36 36 42 46 48 53 54 50 56 53 46 47 50 56 60 67 68 64 63 54 53 59 66 65 65 65 61 59 58 59 62 59 67 67 69 71 70 69 69 69
33 33 38 35 35 36 38 37 43 45 46 49 48 51 49 44 51 48 54 53 58 60 57 55 56 55 60 66 65 63 67 66 65 60 60 61 60 67 66 67 68 70 68 69 70
39 42 42 38 33 33 35 40 42 45 48 51 51 47 47 51 54 54 53 55 57 53 55 54 53 50 49 63 59 52 63 64 64 63 65 58 65 66 63 66 67 68 69 72 72
MSLP
1017.69 1017.28 1016.80 1016.32 1015.76 1015.22 1014.71 1014.24 1013.78 1013.29 1012.82 1012.34 1011.88 1011.38 1011.02 1010.53 1009.64 1009.63 1008.66 1006.64 1006.66 1007.08 1007.45 1008.41 1008.66 1008.66 1008.72 1008.65 1008.48 1008.70 1009.34 1009.48 1009.55 1009.92 1010.24 1010.75 1011.23 1011.36 1011.54 1012.09 1012.37 1012.70 1013.31 1014.07 1015.12
1017.98 1017.51 1017.01 1016.58 1016.10 1015.52 1014.85 1014.22 1013.75 1013.28 1012.84 1012.47 1011.97 1011.38 1010.94 1010.59 1009.88 1008.48 1005.91 1005.64 1006.14 1006.69 1007.56 1007.90 1008.34 1008.40 1008.55 1008.46 1008.37 1008.62 1008.92 1008.20 1007.84 1008.43 1009.42 1010.46 1010.99 1011.22 1011.75 1012.12 1012.83 1013.18 1013.80 1014.55 1015.28
1018.05 1017.57 1017.18 1016.58 1016.14 1015.63 1015.02 1014.36 1013.70 1013.18 1012.73 1012.31 1011.97 1011.46 1010.88 1010.58 1009.57 1006.36 1004.63 1005.32 1005.80 1006.19 1006.51 1006.99 1007.28 1007.72 1008.05 1007.97 1007.82 1007.92 1007.71 1007.12 1007.25 1007.49 1008.46 1010.08 1010.89 1011.24 1011.93 1012.46 1012.54 1012.65 1013.93 1014.75 1015.30
1018.06 1017.56 1017.02 1016.60 1015.98 1015.44 1014.93 1014.34 1013.70 1013.05 1012.53 1012.17 1011.82 1011.47 1010.94 1010.50 1008.47 1005.31 1004.86 1004.86 1005.70 1006.23 1006.44 1006.75 1007.11 1007.43 1007.50 1007.40 1006.96 1007.11 1006.62 1006.75 1006.93 1007.42 1008.54 1009.82 1010.66 1011.34 1011.74 1011.80 1012.15 1012.82 1013.49 1014.59 1015.19
1018.18 1017.60 1017.04 1016.38 1015.92 1015.34 1014.66 1014.03 1013.41 1012.88 1012.31 1011.92 1011.66 1011.37 1011.02 1009.97 1007.14 1004.91 1004.78 1004.86 1005.66 1006.14 1006.24 1006.54 1006.82 1007.00 1007.16 1006.94 1006.58 1006.66 1006.10 1006.31 1006.43 1007.33 1008.36 1009.80 1010.80 1011.25 1011.87 1012.06 1012.66 1013.41 1013.90 1014.37 1015.04
1018.22 1017.68 1017.00 1016.34 1015.52 1015.00 1014.44 1013.67 1013.02 1012.32 1011.90 1011.62 1011.39 1011.29 1010.90 1008.91 1005.17 1004.87 1005.07 1005.30 1005.56 1005.95 1006.26 1006.27 1006.22 1006.42 1006.59 1006.53 1006.49 1006.40 1006.18 1007.00 1007.54 1007.93 1008.80 1010.15 1011.05 1011.19 1012.36 1012.52 1013.14 1013.61 1014.22 1014.46 1014.81
1018.14 1017.58 1017.02 1016.26 1015.49 1014.52 1013.82 1013.15 1012.51 1011.85 1011.26 1011.21 1011.16 1011.10 1010.24 1006.52 1004.79 1004.90 1005.13 1005.12 1005.38 1005.53 1006.15 1005.92 1005.88 1006.26 1006.44 1006.34 1006.31 1006.46 1007.20 1007.70 1008.46 1008.69 1009.64 1010.32 1011.19 1011.44 1011.95 1012.80 1013.29 1013.72 1014.21 1014.56 1014.64
1018.17 1017.48 1016.81 1016.13 1015.27 1014.36 1013.22 1012.58 1011.96 1011.16 1010.65 1010.86 1011.01 1010.85 1008.64 1005.05 1004.84 1004.80 1004.82 1005.22 1005.43 1005.52 1005.62 1005.76 1005.81 1006.28 1006.30 1006.16 1006.63 1007.12 1007.76 1008.62 1008.80 1009.02 1009.82 1010.33 1010.88 1011.58 1012.18 1012.67 1013.32 1013.69 1013.93 1014.22 1014.51
1018.14 1017.48 1016.70 1015.91 1015.01 1013.99 1012.80 1011.92 1011.33 1010.82 1010.61 1010.78 1010.96 1010.32 1007.36 1004.70 1004.74 1004.03 1004.28 1004.90 1005.43 1005.55 1005.58 1005.68 1005.99 1006.62 1006.81 1007.10 1007.80 1008.10 1008.55 1008.92 1009.08 1009.04 1009.55 1010.34 1011.01 1011.50 1012.22 1012.68 1013.16 1013.45 1013.65 1013.81 1014.03
1018.11 1017.36 1016.63 1015.76 1014.71 1013.68 1012.37 1011.22 1011.11 1011.01 1010.80 1010.78 1010.30 1009.94 1006.41 1004.69 1003.91 1003.97 1004.35 1004.40 1005.07 1005.50 1005.67 1005.80 1006.55 1007.12 1007.74 1007.71 1008.06 1008.21 1008.74 1008.84 1008.87 1009.04 1009.38 1010.37 1010.99 1011.57 1011.96 1012.46 1012.63 1012.96 1013.24 1013.40 1013.51
1018.00 1017.33 1016.45 1015.57 1014.60 1013.48 1012.42 1011.32 1011.62 1011.40 1010.55 1009.15 1008.42 1007.29 1005.52 1004.28 1003.63 1003.82 1004.04 1004.44 1004.98 1005.49 1005.93 1006.14 1006.91 1006.88 1007.19 1007.26 1006.98 1007.33 1008.04 1008.45 1008.24 1008.47 1009.27 1010.04 1010.84 1011.45 1011.98 1012.26 1012.26 1012.42 1012.63 1012.82 1012.73
1017.83 1017.21 1016.38 1015.41 1014.23 1013.34 1012.98 1012.66 1012.93 1013.21 1010.96 1007.96 1006.90 1006.45 1005.11 1004.68 1004.55 1003.80 1003.79 1004.49 1005.12 1005.70 1005.94 1006.54 1006.42 1006.17 1006.73 1007.10 1007.14 1007.49 1008.05 1008.30 1008.10 1008.28 1009.09 1009.87 1010.27 1010.64 1011.16 1010.76 1010.98 1011.44 1011.81 1011.97 1012.16
1017.74 1017.11 1016.33 1015.20 1013.95 1013.50 1013.79 1012.77 1012.56 1012.29 1011.65 1007.02 1005.40 1004.42 1003.86 1004.25 1004.06 1003.54 1003.80 1004.11 1004.82 1005.60 1005.96 1006.19 1005.92 1005.72 1006.06 1006.67 1007.11 1007.51 1007.81 1008.17 1008.32 1008.27 1009.24 1010.06 1010.68 1010.60 1010.47 1010.94 1011.19 1011.04 1011.07 1011.16 1011.30
1017.66 1017.03 1016.49 1015.38 1014.18 1014.76 1013.40 1012.52 1012.52 1012.19 1010.98 1006.61 1004.51 1002.72 1002.83 1002.95 1003.07 1002.48 1002.85 1003.66 1004.52 1005.13 1005.93 1005.98 1005.53 1005.55 1005.77 1006.08 1006.36 1006.66 1006.58 1007.16 1008.17 1009.27 1009.78 1010.03 1011.08 1010.09 1010.07 1010.32 1010.37 1010.00 1010.00 1009.98 1010.22
1017.49 1016.84 1016.60 1016.42 1016.22 1015.12 1013.20 1012.61 1012.17 1012.03 1010.02 1004.85 1003.04 1001.70 1002.14 1002.25 1001.82 1002.02 1002.00 1003.00 1004.08 1004.82 1005.42 1005.18 1005.10 1005.31 1005.39 1005.37 1005.67 1006.02 1006.18 1007.14 1007.90 1009.14 1010.24 1010.60 1011.01 1009.54 1009.70 1009.95 1008.97 1008.42 1008.62 1008.75 1009.07
1017.10 1016.56 1016.32 1016.35 1016.31 1013.87 1013.03 1012.58 1012.09 1011.68 1008.58 1004.38 1002.44 1001.87 1002.36 1002.21 1001.66 1001.90 1002.05 1002.37 1003.62 1004.59 1004.99 1005.05 1004.54 1004.38 1004.26 1004.58 1004.78 1005.76 1006.68 1008.04 1009.32 1010.28 1011.28 1010.11 1010.63 1009.52 1009.07 1007.33 1006.47 1007.08 1007.30 1007.36 1007.90
1016.58 1015.77 1015.69 1015.55 1014.23 1012.94 1012.94 1012.62 1012.33 1009.92 1006.47 1004.04 1002.64 1002.14 1001.96 1002.22 1002.13 1001.76 1002.16 1002.91 1003.61 1004.81 1005.21 1005.13 1004.62 1004.01 1003.80 1004.38 1005.08 1005.88 1007.74 1009.47 1010.95 1011.56 1010.98 1010.01 1010.12 1007.69 1006.43 1005.62 1004.89 1004.89 1005.13 1005.58 1006.28
1015.88 1014.86 1014.02 1013.45 1013.00 1013.57 1013.49 1013.00 1010.90 1007.36 1005.41 1003.57 1002.72 1002.28 1002.21 1001.75 1002.08 1002.03 1002.36 1003.13 1003.74 1004.24 1005.63 1005.58 1004.94 1003.93 1003.68 1004.17 1004.90 1006.16 1007.25 1009.07 1010.88 1011.89 1010.78 1009.96 1008.94 1006.02 1004.56 1004.02 1003.98 1004.03 1004.12 1004.93 1005.69
1015.45 1014.44 1014.23 1012.73 1012.80 1013.49 1013.44 1012.36 1008.77 1007.04 1004.88 1003.76 1002.95 1002.54 1002.11 1001.58 1001.56 1002.17 1002.51 1002.86 1003.02 1003.52 1004.68 1005.40 1004.75 1003.47 1003.03 1003.36 1004.18 1005.95 1006.98 1007.58 1009.63 1011.20 1011.24 1009.60 1007.59 1005.31 1004.23 1003.83 1003.65 1003.48 1004.15 1004.24 1004.68
1016.42 1015.49 1013.79 1012.42 1012.60 1013.14 1013.01 1010.64 1008.52 1006.58 1004.88 1003.67 1003.46 1002.77 1002.43 1001.95 1001.82 1002.05 1002.31 1001.90 1002.50 1002.76 1003.10 1004.40 1004.64 1003.32 1002.79 1003.10 1003.79 1004.26 1005.74 1007.89 1009.48 1010.58 1010.85 1009.56 1007.74 1005.97 1004.58 1003.78 1003.38 1003.25 1003.00 1003.09 1003.61
1016.94 1015.88 1013.19 1012.58 1012.60 1012.99 1012.25 1010.37 1008.13 1006.11 1005.48 1004.48 1003.67 1003.20 1002.84 1002.30 1001.97 1001.76 1001.70 1001.42 1001.44 1002.40 1003.01 1004.06 1004.49 1003.96 1003.17 1002.97 1003.57 1004.71 1005.50 1007.12 1008.32 1009.22 1009.57 1009.04 1007.39 1004.64 1003.60 1002.92 1002.78 1002.59 1002.52 1002.82 1003.03
1017.83 1016.47 1013.32 1012.96 1013.38 1013.08 1011.99 1009.94 1007.82 1006.26 1005.16 1004.95 1004.20 1003.65 1003.20 1002.84 1002.38 1002.04 1001.49 1000.88 1000.61 1001.60 1003.04 1003.59 1003.91 1004.44 1003.66 1002.87 1002.93 1003.18 1004.15 1005.49 1007.62 1009.16 1009.21 1008.08 1005.48 1003.42 1003.11 1002.78 1002.84 1002.30 1002.52 1002.69 1003.18
1018.41 1017.16 1013.72 1013.47 1013.79 1013.38 1011.64 1009.90 1008.22 1006.61 1005.45 1005.08 1004.73 1003.97 1003.49 1003.45 1003.55 1002.81 1001.97 1000.83 1000.90 1001.41 1002.09 1003.16 1004.10 1004.63 1003.92 1003.42 1003.02 1003.31 1004.01 1005.08 1006.33 1007.17 1007.97 1007.70 1005.32 1003.29 1002.92 1002.76 1002.44 1002.57 1002.53 1002.84 1003.22
1018.90 1017.99 1015.74 1014.72 1014.51 1014.05 1013.04 1010.64 1008.72 1006.99 1006.10 1005.42 1004.93 1004.76 1004.52 1004.44 1004.18 1003.96 1003.08 1001.72 1001.59 1001.69 1002.10 1002.81 1003.27 1003.44 1003.14 1002.73 1002.75 1003.16 1003.41 1004.20 1005.17 1006.59 1006.84 1005.92 1004.82 1003.80 1002.70 1002.56 1002.40 1002.44 1002.41 1002.73 1003.12
1018.97 1018.54 1017.86 1016.87 1015.64 1015.26 1014.24 1012.00 1009.71 1007.92 1006.93 1006.06 1005.64 1005.40 1005.48 1005.39 1005.02 1004.88 1004.19 1003.10 1001.93 1002.00 1002.38 1002.91 1003.30 1003.22 1002.37 1001.91 1002.06 1002.10 1002.34 1002.99 1003.88 1003.99 1004.58 1004.06 1004.07 1002.72 1002.26 1001.81 1001.66 1001.75 1002.52 1002.73 1003.04
1018.93 1018.69 1017.82 1017.44 1016.45 1015.62 1014.10 1012.76 1011.43 1010.13 1008.79 1007.30 1006.93 1006.78 1006.36 1006.22 1005.54 1005.30 1005.02 1004.34 1003.38 1002.51 1002.69 1002.95 1003.20 1002.94 1002.59 1001.72 1001.53 1001.68 1001.47 1001.71 1001.89 1002.31 1002.43 1002.62 1002.44 1001.40 1001.20 1001.53 1001.77 1001.82 1002.39 1002.82 1002.71
1018.42 1017.96 1017.72 1017.20 1016.77 1016.14 1014.58 1013.70 1012.60 1011.82 1009.78 1008.90 1008.51 1008.04 1006.93 1006.23 1005.97 1005.68 1005.24 1004.92 1004.20 1003.64 1003.58 1003.90 1003.25 1003.70 1003.08 1001.71 1001.80 1001.53 1000.21 1000.32 1000.71 1001.01 1001.04 1001.47 1000.84 1000.69 1001.20 1001.46 1001.28 1001.39 1001.91 1001.88 1001.97
Wind_Speed
21 21 21 21 22 21 21 21 21 21 21 21 19 18 18 17 15 3 7 9 6 15 10 8 1 2 4 3 3 3 4 1 7 7 4 7 5 3 6 9 1 3 7 11 14
21 21 21 20 20 20 21 21 21 21 21 20 18 17 17 15 3 6 13 11 12 17 9 8 5 5 1 2 1 4 3 8 8 7 8 9 6 6 5 5 5 12 14 15 15
22 22 21 21 20 20 20 20 20 20 21 20 17 15 15 10 5 9 4 11 16 14 6 7 6 5 3 3 4 5 6 5 4 7 17 10 5 2 10 2 5 20 17 16 15
22 23 23 22 22 22 21 21 21 21 21 19 16 14 12 3 4 2 1 12 15 8 7 5 3 4 0 3 3 2 7 5 7 11 12 12 7 5 5 4 11 15 19 15 15
23 24 24 25 23 23 23 23 22 21 20 17 14 11 5 2 12 1 7 10 10 9 10 6 5 5 3 3 4 3 2 5 9 14 14 11 3 4 2 11 15 14 15 15 13
24 24 25 25 25 24 23 23 21 22 19 15 10 5 2 4 4 4 8 7 8 7 6 6 6 6 3 3 2 4 9 8 6 12 9 7 4 2 4 13 14 15 12 13 13
23 23 24 25 26 26 25 24 24 23 19 10 5 2 1 16 2 2 3 3 7 5 7 4 4 4 3 3 2 1 8 9 6 5 4 10 2 3 13 13 14 14 12 11 12
23 24 25 25 26 27 28 26 25 21 10 3 5 1 9 4 2 2 5 3 4 4 3 4 4 5 2 2 6 5 7 6 3 4 6 1 4 4 12 15 13 13 12 12 11
23 24 25 26 27 28 29 28 21 8 4 7 3 2 11 6 3 5 5 5 5 2 1 3 5 4 3 5 5 7 7 4 2 7 6 1 3 9 12 13 12 12 12 13 11
23 24 25 26 28 29 32 22 4 2 1 3 4 2 6 1 2 3 3 7 3 5 2 3 5 4 4 4 6 7 6 2 7 10 7 3 3 12 15 14 15 13 12 13 13
23 24 26 27 29 29 15 4 5 1 1 8 4 4 5 7 4 3 4 6 3 4 5 2 5 7 10 6 6 8 7 5 6 6 6 6 4 13 15 13 13 14 14 14 15
23 24 26 28 29 26 3 5 5 4 11 11 14 9 9 3 5 2 7 7 5 5 4 4 7 7 9 8 6 6 5 5 5 3 7 7 9 13 18 23 18 15 15 15 14
23 24 25 28 32 4 2 2 3 3 4 10 7 7 8 11 10 8 9 5 5 6 5 6 4 11 6 5 7 6 8 5 4 1 4 5 6 7 12 11 11 12 11 13 15
23 24 23 30 4 5 5 2 6 3 3 10 5 9 7 10 6 8 9 7 2 11 7 4 4 7 6 4 6 5 9 6 8 6 4 6 7 7 8 15 12 16 14 16 16
23 23 20 13 5 4 3 7 6 1 5 5 4 1 2 10 7 7 7 6 9 5 7 9 7 8 5 7 8 4 8 6 1 4 5 2 2 6 11 10 21 21 19 18 16
24 23 22 1 2 9 10 9 2 5 10 7 3 5 6 3 3 4 6 7 6 5 3 6 2 6 10 5 9 6 6 8 6 4 1 8 7 5 8 21 21 17 20 20 18
26 27 18 3 7 3 5 4 3 6 4 6 4 4 5 6 4 5 9 9 8 6 4 1 5 2 2 5 3 8 8 4 5 3 8 3 4 12 10 10 22 22 25 22 19
29 28 4 6 4 3 2 5 7 7 11 3 1 2 7 7 7 3 8 10 2 6 4 7 5 9 4 9 8 7 10 9 8 5 5 5 7 13 13 13 11 16 17 15 17
26 4 4 4 7 4 5 6 8 7 6 2 4 1 3 3 6 5 9 13 12 10 10 7 7 3 5 7 12 4 4 8 8 2 3 4 8 10 3 6 8 11 8 14 17
8 6 5 3 7 4 4 6 7 5 5 0 7 4 5 4 8 7 11 7 6 10 4 8 1 6 3 5 1 9 9 5 3 6 5 5 5 7 6 10 7 9 15 15 15
4 6 5 3 1 5 5 8 7 11 2 2 4 3 2 3 6 7 9 3 13 10 8 7 4 6 3 7 10 3 3 6 6 5 7 5 9 10 10 9 9 9 9 10 13
3 4 2 2 2 1 3 6 5 6 3 6 3 4 5 3 2 2 8 7 9 9 12 8 6 6 12 4 1 6 10 8 7 5 3 4 10 5 10 8 6 10 7 6 7
4 5 5 2 2 3 6 5 5 4 5 5 6 6 1 5 2 4 3 5 2 7 10 8 3 3 10 6 3 4 4 6 5 4 8 6 9 3 6 7 8 9 8 7 8
3 5 5 4 1 3 5 6 6 5 8 5 2 2 2 1 2 3 3 4 6 4 1 6 3 11 16 10 6 5 7 7 8 5 6 8 7 7 8 8 7 7 7 8 9
2 3 2 5 3 7 3 5 6 3 4 4 2 9 7 5 3 6 5 8 8 3 4 9 9 8 9 12 9 9 7 10 10 8 9 7 11 11 11 13 13 9 4 7 10
1 0 2 4 5 6 3 2 5 7 3 3 1 5 2 5 6 3 6 5 7 5 5 1 6 8 11 14 10 10 15 10 11 3 5 5 8 11 2 6 5 10 9 9 9
2 3 1 3 5 4 3 4 7 10 7 6 7 6 5 5 2 6 6 7 8 4 3 3 4 4 7 14 5 4 16 12 7 6 8 7 13 6 5 9 11 11 12 14 12
Wind_Direction
1 359 356 353 350 347 344 341 338 336 334 334 333 333 330 328 317 146 240 217 171 142 108 113 336 177 151 250 200 112 51 159 182 150 166 144 151 181 103 136 59 122 124 136 139
359 357 353 351 347 344 339 335 333 331 330 330 330 329 326 330 309 247 233 208 162 151 121 150 166 155 209 233 234 110 149 212 186 152 149 163 177 136 117 136 81 91 101 129 138
356 352 351 347 345 340 336 332 328 326 326 326 327 325 320 324 335 249 255 179 156 157 137 168 136 161 202 187 193 186 209 183 197 138 135 156 149 65 126 201 214 144 140 146 149
354 351 347 345 341 337 333 330 324 322 321 323 322 321 318 301 273 87 30 205 161 161 123 141 147 150 167 247 196 236 249 189 146 141 132 154 137 121 194 210 143 145 147 152 163
350 348 344 340 337 334 329 325 320 318 316 316 316 319 311 4 252 345 60 110 133 144 154 154 156 154 196 240 305 184 284 154 136 137 128 119 132 151 108 120 133 140 152 160 173
348 345 342 339 334 330 326 319 318 314 311 307 302 308 272 263 246 8 115 129 137 128 157 153 195 190 166 236 258 339 78 71 85 128 116 116 173 129 122 135 143 153 171 173 180
343 341 339 336 333 327 323 318 317 312 304 290 256 228 227 238 145 74 151 165 160 125 139 220 164 96 198 290 327 3 77 59 61 102 88 118 270 140 147 153 156 168 180 191 191
341 339 337 334 330 326 319 319 316 311 299 196 190 207 247 248 293 236 147 105 109 115 152 176 169 120 196 292 22 72 58 89 271 121 171 93 237 138 159 160 177 180 187 194 203
340 338 336 334 329 325 319 317 310 316 109 145 131 168 265 318 253 216 157 128 121 113 183 148 129 138 54 98 37 4 148 132 176 195 152 178 222 168 171 177 182 191 197 202 204
339 337 335 333 328 325 322 312 282 0 77 219 258 349 273 272 247 157 178 133 129 117 67 108 66 101 54 88 186 162 130 146 185 208 178 152 288 167 180 187 193 196 202 208 210
338 338 333 332 328 327 337 5 8 351 214 206 210 253 285 287 285 194 173 109 101 94 153 197 108 187 181 190 139 122 126 173 205 196 151 204 179 183 189 205 204 204 204 211 218
336 336 334 330 326 322 312 61 84 247 303 234 245 249 249 59 323 333 132 127 145 186 135 70 210 217 125 151 126 116 128 222 311 172 154 190 224 190 187 213 207 203 211 212 219
334 334 335 331 322 11 308 161 31 3 242 286 207 204 195 148 204 239 148 140 143 159 182 147 258 152 138 146 155 172 170 171 182 88 50 96 314 188 213 210 222 222 221 222 218
332 332 338 337 24 328 295 354 338 227 358 276 260 266 152 145 240 193 169 145 168 186 145 210 203 142 153 182 139 230 174 159 139 125 215 146 261 242 190 210 222 225 214 216 216
328 327 334 339 281 310 333 319 322 104 319 249 224 163 161 169 151 217 173 74 167 182 125 227 175 161 164 195 174 238 136 157 129 101 103 209 51 261 163 216 225 226 218 220 216
323 322 328 37 290 244 310 308 73 52 245 299 216 166 112 281 235 104 137 87 150 144 139 199 253 169 195 167 179 163 80 43 54 89 74 212 162 265 185 215 227 218 223 219 212
321 317 312 219 231 141 308 15 69 189 272 261 233 167 150 183 241 148 154 158 157 140 217 30 216 233 161 88 69 88 70 5 352 8 215 102 125 237 228 232 222 207 215 216 208
321 314 262 210 240 317 52 59 207 199 216 298 117 105 180 157 214 148 135 179 203 111 119 163 276 166 178 172 172 176 150 154 195 192 245 84 215 249 227 234 234 235 226 220 209
324 325 286 267 181 132 105 202 212 203 222 246 352 226 269 209 157 160 177 204 190 168 163 147 259 252 187 150 145 183 145 185 105 23 88 236 284 304 293 275 242 238 196 208 209
325 333 278 311 137 98 100 225 223 237 316 162 199 192 221 218 156 178 165 193 196 181 151 201 248 209 200 109 194 153 161 106 2 156 213 266 267 233 247 253 224 242 214 205 201
22 345 314 136 115 53 198 233 219 262 1 293 223 238 246 202 172 166 198 251 190 187 142 139 120 288 110 196 162 115 165 55 120 130 177 210 255 216 221 236 259 257 227 200 196
5 330 263 22 36 124 201 202 253 256 152 251 278 224 201 274 258 235 192 210 182 147 175 200 162 205 231 253 192 175 185 150 144 227 213 174 259 232 232 252 260 266 226 193 190
343 272 311 80 265 280 291 282 261 280 242 185 226 220 205 204 225 208 228 265 135 143 163 171 222 273 305 348 352 195 174 117 98 81 184 160 266 263 260 281 255 250 224 191 191
354 328 317 27 4 13 350 265 241 262 266 227 250 334 72 285 352 304 307 297 44 131 277 156 153 183 226 216 163 189 179 173 148 143 179 209 235 272 236 233 224 236 212 196 192
51 267 298 334 322 330 289 288 304 245 332 296 199 233 218 232 193 194 250 306 304 217 177 156 212 181 237 223 192 208 185 170 179 187 183 223 198 236 224 210 213 201 187 181 199
184 29 331 288 294 308 282 324 18 336 310 329 114 355 360 210 198 141 202 200 238 314 169 154 245 173 236 231 207 220 228 207 217 156 236 174 242 224 339 110 160 191 178 197 203
263 276 239 322 317 351 271 16 331 337 293 312 24 346 306 232 274 263 243 259 276 284 19 295 142 121 240 228 132 275 227 203 190 187 165 171 226 164 204 207 200 193 193 194 199